Regional Weather Roundup
Issued by NWS

Home | Current Version | Previous Version | Graphics & Text | Print | Product List | Glossary On
Versions: 1 2 3 4 5 6 7 8 9 10 11 12 13 14 15 16 17 18 19 20 21 22 23 24 25 26 27 28 29 30 31 32 33 34 35 36 37 38 39 40 41 42 43 44 45 46 47 48 49 50
000
ASUS43 KMPX 242101
RWRMN
WEATHER ROUNDUP FOR MINNESOTA
NATIONAL WEATHER SERVICE TWIN CITIES/CHANHASSEN MN
400 PM CDT TUE MAY 24 2016


NOTE: "FAIR" INDICATES FEW OR NO CLOUDS BELOW 12,000 FEET WITH NO
SIGNIFICANT WEATHER AND/OR OBSTRUCTIONS TO VISIBILITY. N/A MEANS
CURRENT SKY AND/OR WEATHER CONDITIONS ARE NOT AVAILABLE.

MNZ060>063-068>070-242200-
   Twin Cities Metro

CITY           SKY/WX    TMP DP  RH WIND       PRES   REMARKS
TWIN CITIES    MOSUNNY   83  52  34 W9        29.88S
ST PAUL        MOSUNNY   82  52  35 NW9       29.88S
CRYSTAL        SUNNY     82  50  32 VRB3      29.87S
BLAINE         MOSUNNY   82  52  34 NW7       29.89R
EDEN PRAIRIE   SUNNY     86  54  33 N7        29.87S
SOUTH ST PAUL  SUNNY     84  51  31 W6G16     29.88S
LAKE ELMO      FAIR      82  57  42 NW5       29.90R
$$
MNZ001>005-007-008-013>017-022>024-027-028-242200-
   Northwest Minnesota

CITY           SKY/WX    TMP DP  RH WIND       PRES   REMARKS
BEMIDJI        SUNNY     80  44  28 W14       29.89R
HALLOCK        SUNNY     75  48  38 NW5       29.87S
ROSEAU         MOSUNNY   75  54  46 NW3       29.88S
WARROAD        MOSUNNY   70  54  56 E7        29.88S
THIEF RVR FALL SUNNY     73  52  46 W8        29.90S
CROOKSTON      SUNNY     75  54  46 W3        29.89S
FOSSTON        SUNNY     77  46  33 W9        29.90R
DETROIT LAKES  CLOUDY    77  50  38 NW3       29.90S
MOORHEAD       LGT RAIN  81  43  26 CALM      29.86R
PARK RAPIDS    MOSUNNY   80  52  37 NW8       29.88S
MAHNOMEN       FAIR      78  53  42 W9        29.88R
$$
MNZ006-009>011-018-025>026-242200-
   North Central Minnesota

CITY           SKY/WX    TMP DP  RH WIND       PRES   REMARKS
BAUDETTE       SUNNY     76  48  37 NW12      29.87R
FLAG ISLAND    MOSUNNY   66  50  55 N9        29.88S
INTL FALLS     PTSUNNY   80  47  31 S8        29.85S
WASKISH        SUNNY     77  52  41 SW13      29.88S
BIG FORK       SUNNY     81  45  28 SW14      29.88R
LONGVILLE      SUNNY     79  54  41 SW5       29.89F
CRANE LAKE     MOSUNNY   75  46  35 CALM      29.88R
ORR            MOSUNNY   81  43  26 CALM      29.85R
COOK           MOSUNNY   79  48  34 SW9       29.88R
WALKER         FAIR      78  52  40 W9G16     29.88F
$$
MNZ012-019>021-037-242200-
   Northeast Minnesota

CITY           SKY/WX    TMP DP  RH WIND       PRES   REMARKS
DULUTH         MOSUNNY   69  56  62 E15       29.91R
ELY            PTSUNNY   72  52  49 CALM      29.90R
HIBBING        MOSUNNY   78  50  37 W8        29.88S
EVELETH        MOSUNNY   77  46  33 S8        29.89S
DULUTH HARBOR  CLOUDY    55  54  94 N12       29.91S FOG
TWO HARBORS      N/A     72  61  68 E8        29.90R
SILVER BAY     SUNNY     72  55  56 E10       29.90R
GRAND MARAIS     N/A     57  52  83 NE10      29.95R
G MARAIS ARPRT CLOUDY    57  52  82 E12       29.98R
$$
MNZ029>031-032-039>041-046>048-054>057-064-242200-
   West Central Minnesota

CITY           SKY/WX    TMP DP  RH WIND       PRES   REMARKS
FERGUS FALLS   MOSUNNY   82  52  34 S5        29.80F
WHEATON        SUNNY     88  52  29 W10       29.84F
MORRIS         SUNNY     84  50  30 W7        29.83F
ALEXANDRIA     MOSUNNY   81  48  31 SW5       29.87F
ELBOW LAKE     FAIR      81  49  33 W7        29.85S
WADENA         MOSUNNY   81  46  30 NW3       29.87R
GLENWOOD       LGT RAIN  81  54  39 CALM      29.87F
APPLETON       MOSUNNY   84  48  28 S3        29.83F
BENSON         MOSUNNY   84  48  28 N12       29.83F
ORTONVILLE     SUNNY     86  45  23 SW8       29.83F
MADISON        SUNNY     84  45  24 W6        29.84S
WILLMAR        LGT RAIN  79  64  61 E14       29.86F
$$
MNZ033>034-036-042>043-049>051-058-059-242200-
   Central Minnesota

CITY           SKY/WX    TMP DP  RH WIND       PRES   REMARKS
ST CLOUD       CLOUDY    80  58  46 SE6       29.88S
SAUK CENTRE    FAIR      80  53  39 CALM      29.87F
PAYNESVILLE    SUNNY     78  51  38 E7        29.87F
AITKIN         MOSUNNY   81  46  30 W6        29.88R
PINE RIVER     MOSUNNY   79  55  44 CALM      29.91F
BRAINERD       SUNNY     79  51  37 VRB3      29.89S
STAPLES        SUNNY     82  45  26 NW5       29.87S
LONG PRAIRIE   FAIR      79  52  38 CALM      29.88F
LITTLE FALLS   MOSUNNY   81  46  30 CALM      29.88S
LITCHFIELD     SUNNY     79  59  50 E5        29.88F
BUFFALO        SUNNY     80  55  41 S3        29.89F
MAPLE LAKE     SUNNY     79  61  53 CALM      29.90S
HUTCHINSON     SUNNY     81  65  57 CALM      29.87F
$$
MNZ037-044-045-052-053-242200-
   East Central Minnesota

CITY           SKY/WX    TMP DP  RH WIND       PRES   REMARKS
PRINCETON      PTSUNNY   82  55  39 S3        29.88S
MORA           MOSUNNY   79  50  36 CALM      29.90S
CAMBRIDGE        N/A     82  61  47 W7        29.87S
RUSH CITY      MOSUNNY   78  58  51 N3        29.89S
MOOSE LAKE     MOSUNNY   79  55  44 SW6       29.87S
HINCKLEY       FAIR      79  57  47 SE3       29.89S
CLOQUET        SUNNY     79  52  38 W3        29.89S
MCGREGOR       SUNNY     79  50  36 W3        29.89S
$$
MNZ071>073-080-081-089-090-097-098-242200-
   Southwest Minnesota

CITY           SKY/WX    TMP DP  RH WIND       PRES   REMARKS
MONTEVIDEO     MOSUNNY   90  55  31 CALM      29.85F
GRANITE FALLS  MOSUNNY   88  49  26 W12       29.85F
CANBY          SUNNY     87  45  22 CALM      29.86F
MARSHALL       SUNNY     85  42  22 W15       29.85F
REDWOOD FALLS  SUNNY     83  59  44 S7        29.84F
OLIVIA         SUNNY     79  61  53 SE10      29.84F
PIPESTONE      SUNNY     82  37  20 W7        29.89S
WINDOM         SUNNY     81  57  44 CALM      29.90R
WORTHINGTON    MOSUNNY   79  62  56 S7        29.91R
JACKSON        SUNNY     81  55  41 S6        29.91S
SLAYTON        SUNNY     84  43  23 W9        29.90R
$$
MNZ065>067-074>077-082>085-091>093-242200-
   South Central Minnesota

CITY           SKY/WX    TMP DP  RH WIND       PRES   REMARKS
MANKATO        SUNNY     84  48  28 SW9       29.88S
NEW ULM        MOSUNNY   82  55  39 SW7       29.86F
ST JAMES       SUNNY     77  55  47 S6        29.89S
FAIRMONT       SUNNY     81  57  44 E3        29.90R
GLENCOE        PTSUNNY   82  66  57 N3        29.87S
OWATONNA       MOSUNNY   81  52  36 CALM      29.90R
WASECA         MOSUNNY   82  46  28 SW5       29.91R
ALBERT LEA     SUNNY     81  59  47 S8        29.92R
$$
MNZ078>079-086>088-094>096-242200-
   Southeast Minnesota

CITY           SKY/WX    TMP DP  RH WIND       PRES   REMARKS
ROCHESTER      SUNNY     78  60  53 SE3       29.93R
RED WING       MOSUNNY   84  54  34 S6        29.87S
STANTON        MOSUNNY   82  53  35 S3        29.87R
DODGE CENTER   SUNNY     82  52  34 S13       29.92R
WINONA         CLOUDY    81  55  41 CALM      29.91R
AUSTIN         SUNNY     77  61  57 S5        29.93R
PRESTON        MOSUNNY   78  56  45 S7        29.94R
$$
ABBREVIATIONS USED IN REMARKS
   TC - TEMPERATURES IN CELSIUS
  WCI - WIND CHILL INDEX
   HX - HEAT INDEX
  VSB - VISIBILITY
$$




USA.gov is the U.S. government's official web portal to all federal, state and local government web resources and services.